Weather History for Defiance, OH

Change the Weather History Date:

Thursday, March 28, 2013

  Actual Average Record
Temperature  
Mean Temperature 40 °F -  
Max Temperature 53 °F 51 °F 82 °F (1945)
Min Temperature 27 °F 30 °F 6 °F (1965)
Degree Days  
Heating Degree Days 26    
Moisture  
Dew Point 22 °F    
Average Humidity 53    
Maximum Humidity 75    
Minimum Humidity 32    
Precipitation  
Precipitation 0.00 in - - ()
Sea Level Pressure  
Sea Level Pressure 30.29 in    
Wind  
Wind Speed 4 mph (West)    
Max Wind Speed 10 mph    
Max Gust Speed 17 mph    
Visibility 10 miles    
Events      
Averages and records for this station are not official NWS values.
T = Trace of Precipitation, MM = Missing Value Source: NWS Daily Summary

Daily Weather History Graph

Daily Weather History Graph

Search for Another Location

Airport:

Trip Planner

Search our weather history database for the weather conditions in past years. The results will help you decide how hot, cold, wet, or windy it might be!

Date:

Astronomy

Mar. 28, 2013 Rise Set
Actual Time 7:27 AM EDT 7:58 PM EDT
Civil Twilight 6:59 AM EDT 8:26 PM EDT
Nautical Twilight 6:26 AM EDT 8:59 PM EDT
Astronomical Twilight 5:53 AM EDT 9:33 PM EDT
Moon 9:51 PM EDT (3/28) 7:53 AM EDT (3/28)
Length of Visible Light 13h 27m
Length of Day
12h 31m
Full, 98% of the Moon is Illuminated
Mar 28
Full
Apr 3
Last Quarter
Apr 10
New
Apr 18
First Quarter
Apr 25
Full

Hourly Weather History & Observations

Time (EDT) Temp. Windchill Dew Point Humidity Pressure Visibility Wind Dir Wind Speed Gust Speed Precip Events Conditions
12:53 AM 33.1 °F 30.0 °F 19.9 °F 59% 30.28 in 10.0 mi Variable 3.5 mph - N/A   Clear
1:53 AM 30.9 °F 27.5 °F 19.9 °F 64% 30.28 in 10.0 mi West 3.5 mph - N/A   Clear
2:53 AM 30.9 °F 27.5 °F 19.0 °F 61% 30.28 in 10.0 mi Variable 3.5 mph - N/A   Clear
3:53 AM 30.0 °F 26.5 °F 19.0 °F 64% 30.28 in 10.0 mi WNW 3.5 mph - N/A   Clear
4:53 AM 30.0 °F 26.5 °F 19.0 °F 64% 30.29 in 10.0 mi West 3.5 mph - N/A   Clear
5:53 AM 28.0 °F - 19.0 °F 69% 30.29 in 10.0 mi Calm Calm - N/A   Clear
6:53 AM 27.0 °F - 19.0 °F 72% 30.30 in 10.0 mi Calm Calm - N/A   Clear
7:53 AM 27.0 °F 21.6 °F 19.9 °F 75% 30.31 in 10.0 mi SW 4.6 mph - N/A   Clear
8:53 AM 33.1 °F 28.7 °F 21.9 °F 64% 30.32 in 10.0 mi WSW 4.6 mph - N/A   Clear
9:53 AM 37.9 °F 32.7 °F 24.1 °F 57% 30.32 in 10.0 mi WNW 6.9 mph - N/A   Clear
10:53 AM 42.1 °F 38.4 °F 24.1 °F 49% 30.33 in 10.0 mi WNW 5.8 mph - N/A   Clear
11:53 AM 45.0 °F 41.2 °F 23.0 °F 42% 30.32 in 10.0 mi Variable 6.9 mph - N/A   Clear
12:53 PM 48.9 °F - 24.1 °F 38% 30.31 in 10.0 mi NW 10.4 mph - N/A   Clear
1:53 PM 50.0 °F - 24.1 °F 36% 30.30 in 10.0 mi Variable 5.8 mph 17.3 mph N/A   Clear
2:53 PM 50.0 °F - 23.0 °F 35% 30.29 in 10.0 mi WNW 8.1 mph 17.3 mph N/A   Partly Cloudy
3:53 PM 48.9 °F - 21.9 °F 35% 30.27 in 10.0 mi Variable 6.9 mph - N/A   Partly Cloudy
4:53 PM 50.0 °F - 21.9 °F 33% 30.27 in 10.0 mi WNW 5.8 mph - N/A   Scattered Clouds
5:53 PM 52.0 °F - 23.0 °F 32% 30.26 in 10.0 mi West 9.2 mph - N/A   Mostly Cloudy
6:53 PM 50.0 °F - 21.9 °F 33% 30.27 in 10.0 mi Variable 4.6 mph - N/A   Mostly Cloudy
7:53 PM 46.9 °F - 21.9 °F 37% 30.27 in 10.0 mi WSW 4.6 mph - N/A   Clear
8:53 PM 43.0 °F 40.3 °F 23.0 °F 45% 30.29 in 10.0 mi WSW 4.6 mph - N/A   Clear
9:53 PM 37.0 °F 32.4 °F 23.0 °F 57% 30.30 in 10.0 mi SSW 5.8 mph - N/A   Clear
10:53 PM 37.9 °F - 28.0 °F 68% 30.31 in 10.0 mi Calm Calm - N/A   Clear
11:53 PM 35.1 °F - 27.0 °F 72% 30.31 in 10.0 mi Calm Calm - N/A   Clear